Location: Fort Worth, Tx
(32.7431°N, 97.3695°W)
Time: 18:57:10
(UTC-04:00)

Transit 4A - Pass Details

Date: 08 March 2024
Orbit: 871 x 972 km, 66.8° (Epoch: 22 April)

Event Time Altitude Azimuth Distance (km) Brightness Sun altitude
Rises 09:32:57 0° 331° (NNW) 3,468 10.5 20.7°
Reaches altitude 10° 09:35:26 10° 330° (NNW) 2,522 9.8 21.2°
Maximum altitude 09:41:14 72° 247° (WSW) 914 8.1 22.3°
Drops below altitude 10° 09:47:00 10° 164° (SSE) 2,519 10.8 23.5°
Sets 09:49:29 0° 162° (SSE) 3,463 11.5 23.9°
